[[{"header":{"parameterUnit":"m.s-1","parameterCategory":1,"la1":30.2991,"la2":30.254,"lo1":-89.0895,"lo2":-89.0444,"dy":0.0017,"dx":0.0017,"nx":28,"ny":28,"refTime":"2024-10-22T03:00:00:Z","depth":0,"parameterNumber":2,"parameterNumberName":"U-component_of_WINDS"},"data":[0,0,0,0,0,0,0,0,0,0,0,0,0,0,0,0,0,0,0,0,0,0,0,0,0,0,0,0,0,0,0,0,0,0,0,0,0,0,0,0,0,0,0,0,0,0,0,0,0,0,0,0,0,0,0,0,0,0,-0.8657,-0.8656,0,-0.8548,-0.8547,-0.8545,-0.8482,-0.8482,-0.8482,-0.8482,-0.8366,-0.8363,-0.836,0,0,0,0,0,0,0,0,0,0,0,0,0,-0.8808,-0.8806,-0.8657,-0.8656,-0.8655,-0.8548,-0.8547,-0.8545,-0.8482,-0.8482,-0.8482,-0.8482,-0.8367,-0.8363,-0.836,0,0,0,0,0,0,0,0,0,0,0,0,0,-0.8725,-0.8805,-0.8658,-0.8611,-0.8605,-0.8548,-0.8547,-0.8545,-0.8482,-0.8482,-0.8482,-0.8481,-0.8368,-0.8363,-0.8359,-0.8339,0,0,-0.8346,-0.8344,0,0,0,0,0,0,0,0,-0.873,-0.872,-0.8619,-0.8614,-0.8608,-0.8529,-0.8557,-0.8476,-0.8483,-0.8529,-0.8482,-0.8481,-0.842,-0.8411,-0.8391,-0.8334,-0.8329,-0.8346,-0.8343,-0.8341,-0.834,0,0,0,0,0,0,0,-0.8736,-0.8724,-0.8614,-0.8617,-0.8611,-0.8594,-0.8582,-0.8541,-0.8477,-0.8525,-0.852,-0.8508,-0.8417,-0.8396,-0.8388,-0.8327,-0.8346,-0.8342,-0.8339,-0.8337,-0.8248,-0.8248,0,0,0,0,0,0,-0.875,-0.8729,-0.8617,-0.8611,-0.8669,-0.8591,-0.8578,-0.8554,-0.8478,-0.8466,-0.8509,-0.8506,-0.8403,-0.8393,-0.8384,-0.8356,-0.8341,-0.8337,-0.8335,-0.8248,-0.8248,-0.8248,0,0,0,0,0,0,-0.8753,-0.874,-0.8622,-0.8669,-0.8652,-0.8589,-0.8563,-0.8552,-0.8531,-0.8466,-0.8453,-0.8499,-0.8402,-0.839,-0.8351,-0.8351,-0.8335,-0.8331,-0.8248,-0.8248,-0.8248,-0.83,0,0,0,0,0,0,-0.8758,-0.8742,-0.8735,-0.8669,-0.865,-0.8592,-0.8563,-0.855,-0.8524,-0.8519,-0.8453,-0.8442,-0.8401,-0.8358,-0.8347,-0.8344,-0.8328,-0.8247,-0.8248,-0.8248,-0.8298,-0.8302,-0.8305,0,0,0,0,0,-0.8763,-0.8752,-0.8734,-0.8721,-0.864,-0.8592,-0.8581,-0.8536,-0.8525,-0.8516,-0.8474,-0.8444,-0.8353,-0.8355,-0.8341,-0.8338,-0.8247,-0.8248,-0.8248,-0.8296,-0.8301,-0.8305,0,0,0,0,0,0,-0.8817,-0.8743,-0.8722,-0.869,-0.8648,-0.8582,-0.857,-0.8542,-0.8502,-0.8499,-0.8443,-0.8428,-0.8395,-0.8362,-0.8366,-0.8315,-0.8297,-0.8295,-0.8337,-0.8341,-0.8345,-0.8354,-0.8324,0,0,0,0,0,-0.8826,-0.8795,-0.8731,-0.8708,-0.8689,-0.8633,-0.8611,-0.858,-0.8533,-0.8515,-0.847,-0.8426,-0.8387,-0.8362,-0.8323,-0.8293,-0.8277,-0.8284,-0.8287,-0.8291,-0.829,-0.8271,-0.8274,-0.825,-0.825,-0.825,0,0,-0.8842,-0.8798,-0.8781,-0.8718,-0.8682,-0.8651,-0.8619,-0.8586,-0.8562,-0.8509,-0.8471,-0.8437,-0.8383,-0.8349,-0.8331,-0.832,-0.8293,-0.8291,-0.8295,-0.8291,-0.8272,-0.8275,-0.8277,-0.825,-0.825,-0.825,0,0,-0.8857,-0.882,-0.8798,-0.8763,-0.8709,-0.8673,-0.8668,-0.8605,-0.8581,-0.8542,-0.8502,-0.8472,-0.8406,-0.837,-0.8343,-0.8345,-0.8316,-0.8333,-0.8352,-0.8336,-0.8337,-0.8339,-0.834,-0.8341,-0.8332,-0.8332,-0.8332,0,-0.8884,-0.8836,-0.8789,-0.876,-0.8733,-0.8686,-0.8662,-0.863,-0.8566,-0.8548,-0.8537,-0.8455,-0.8415,-0.8372,-0.8373,-0.8352,-0.8344,-0.834,-0.8341,-0.8342,-0.8343,-0.8343,-0.8343,-0.8335,-0.8335,-0.8334,-0.8334,0,-0.8871,-0.8839,-0.8827,-0.8769,-0.874,-0.8714,-0.8662,-0.8639,-0.8611,-0.8575,-0.8535,-0.8487,-0.8437,-0.8424,-0.8395,-0.8377,-0.8372,-0.8352,-0.8333,-0.8348,-0.8348,-0.8347,-0.8338,-0.8338,-0.8337,-0.8336,0,0,-0.8916,-0.8833,-0.883,-0.8803,-0.8741,-0.8714,-0.8686,-0.8639,-0.862,-0.8577,-0.8552,-0.8498,-0.8479,-0.8449,-0.8415,-0.84,-0.8405,-0.8381,-0.8379,-0.8388,-0.8383,-0.8399,-0.84,-0.8386,-0.8386,-0.8386,-0.8387,0,-0.8921,-0.8869,-0.8827,-0.879,-0.8759,-0.8715,-0.869,-0.8649,-0.8615,-0.8583,-0.8544,-0.8507,-0.8485,-0.8467,-0.845,-0.8408,-0.8404,-0.8408,-0.8361,-0.836,-0.8376,-0.8399,-0.8415,-0.842,-0.8387,-0.8387,-0.8387,0,-0.892,-0.8882,-0.8843,-0.8785,-0.877,-0.8749,-0.8703,-0.8673,-0.8626,-0.8602,-0.8569,-0.8534,-0.8501,-0.8485,-0.8439,-0.8443,-0.8421,-0.8398,-0.8397,-0.839,-0.8374,-0.8394,-0.842,-0.8421,-0.8386,-0.8386,-0.8386,0,-0.8957,-0.8895,-0.8864,-0.8842,-0.8774,-0.876,-0.8731,-0.8683,-0.8658,-0.8617,-0.86,-0.8556,-0.8531,-0.8497,-0.8451,-0.8444,-0.841,-0.839,-0.8388,-0.839,-0.8383,-0.8384,-0.8406,-0.8369,-0.8369,-0.8369,-0.8369,0,-0.8967,-0.8945,-0.888,-0.8861,-0.8834,-0.8786,-0.8761,-0.8727,-0.8685,-0.8658,-0.8616,-0.8591,-0.8533,-0.85,-0.8464,-0.8431,-0.842,-0.84,-0.839,-0.8404,-0.8406,-0.8389,-0.8387,-0.8369,-0.8369,-0.8369,-0.8369,0,-0.9004,-0.8959,-0.8922,-0.8862,-0.8846,-0.8829,-0.8777,-0.8756,-0.872,-0.8686,-0.8676,-0.8619,-0.8579,-0.853,-0.8474,-0.8449,-0.842,-0.8406,-0.8437,-0.8432,-0.8433,-0.8434,-0.8445,-0.8444,-0.8408,-0.8408,-0.8408,0,-0.9014,-0.8996,-0.8934,-0.8914,-0.8886,-0.8854,-0.8829,-0.878,-0.8755,-0.87,-0.8686,-0.8643,-0.8607,-0.8545,-0.8498,-0.8455,-0.8439,-0.8446,-0.8432,-0.8446,-0.8439,-0.8441,-0.8439,-0.8449,-0.845,-0.8451,-0.8451,0,-0.9036,-0.9015,-0.8981,-0.8939,-0.8911,-0.8875,-0.8838,-0.8823,-0.8766,-0.874,-0.87,-0.8672,-0.8616,-0.8574,-0.8525,-0.8493,-0.8463,-0.8456,-0.8453,-0.8467,-0.8486,-0.8476,-0.8447,-0.8456,-0.8455,-0.8455,-0.8455,-0.8454,-0.9059,-0.9041,-0.8996,-0.8959,-0.8927,-0.8893,-0.8871,-0.8833,-0.8799,-0.8751,-0.8724,-0.8684,-0.8637,-0.8569,-0.8539,-0.8506,-0.8495,-0.8491,-0.849,-0.849,-0.8495,-0.8491,-0.8497,-0.8497,-0.8497,-0.8497,-0.8496,0,-0.9079,-0.9048,-0.9015,-0.8965,-0.8937,-0.8912,-0.887,-0.8847,-0.8813,-0.8773,-0.8738,-0.8692,-0.8652,-0.8602,-0.8558,-0.8542,-0.8527,-0.8532,-0.8533,-0.8526,-0.8507,-0.8514,-0.8545,-0.8545,-0.8545,-0.8545,-0.8545,-0.8545,-0.9086,-0.9056,-0.903,-0.8983,-0.8951,-0.8914,-0.8892,-0.886,-0.8828,-0.8779,-0.8746,-0.8714,-0.867,-0.8623,-0.8584,-0.857,-0.8556,-0.8566,-0.8548,-0.8531,-0.8527,-0.8523,-0.8529,-0.8563,-0.8563,-0.8569,-0.857,-0.857]},{"header":{"parameterUnit":"m.s-1","parameterCategory":1,"la1":30.2991,"la2":30.254,"lo1":-89.0895,"lo2":-89.0444,"dy":0.0017,"dx":0.0017,"nx":28,"ny":28,"refTime":"2024-10-22T03:00:00:Z","depth":0,"parameterNumber":3,"parameterNumberName":"V-component_of_WINDS"},"data":[0,0,0,0,0,0,0,0,0,0,0,0,0,0,0,0,0,0,0,0,0,0,0,0,0,0,0,0,0,0,0,0,0,0,0,0,0,0,0,0,0,0,0,0,0,0,0,0,0,0,0,0,0,0,0,0,0,0,-0.489,-0.489,0,-0.4897,-0.4897,-0.4897,-0.4888,-0.4887,-0.4887,-0.4887,-0.4893,-0.4894,-0.4894,0,0,0,0,0,0,0,0,0,0,0,0,0,-0.4871,-0.4872,-0.489,-0.489,-0.489,-0.4897,-0.4897,-0.4897,-0.4888,-0.4887,-0.4887,-0.4887,-0.4893,-0.4894,-0.4894,0,0,0,0,0,0,0,0,0,0,0,0,0,-0.4879,-0.4872,-0.489,-0.4887,-0.4886,-0.4897,-0.4897,-0.4897,-0.4888,-0.4887,-0.4887,-0.4886,-0.4893,-0.4894,-0.4894,-0.4909,0,0,-0.4897,-0.4897,0,0,0,0,0,0,0,0,-0.4878,-0.4879,-0.4887,-0.4887,-0.4887,-0.4891,-0.4893,-0.4901,-0.4888,-0.4887,-0.4887,-0.4886,-0.4893,-0.4894,-0.4896,-0.4909,-0.4909,-0.4897,-0.4897,-0.4897,-0.4898,0,0,0,0,0,0,0,-0.4878,-0.4879,-0.4893,-0.4887,-0.4887,-0.4885,-0.4886,-0.4894,-0.4893,-0.4887,-0.4887,-0.4888,-0.4893,-0.4895,-0.4896,-0.4909,-0.4897,-0.4897,-0.4898,-0.4898,-0.4937,-0.4938,0,0,0,0,0,0,-0.4878,-0.4879,-0.4893,-0.4893,-0.4881,-0.4886,-0.4886,-0.489,-0.4893,-0.4893,-0.4888,-0.4887,-0.4894,-0.4895,-0.4896,-0.4915,-0.4897,-0.4898,-0.4898,-0.4937,-0.4937,-0.4938,0,0,0,0,0,0,-0.4877,-0.4879,-0.4892,-0.4886,-0.4887,-0.4887,-0.4891,-0.489,-0.4893,-0.4893,-0.4893,-0.4891,-0.4894,-0.4895,-0.4906,-0.4915,-0.4898,-0.4899,-0.4936,-0.4937,-0.4938,-0.4952,0,0,0,0,0,0,-0.4877,-0.4879,-0.4884,-0.4886,-0.4888,-0.4902,-0.4891,-0.4891,-0.4894,-0.4893,-0.4896,-0.4896,-0.4894,-0.4905,-0.4907,-0.4916,-0.49,-0.4935,-0.4936,-0.4937,-0.4951,-0.4953,-0.4955,0,0,0,0,0,-0.4876,-0.4887,-0.4884,-0.4886,-0.4894,-0.4902,-0.4903,-0.4901,-0.4895,-0.49,-0.4901,-0.4896,-0.4914,-0.4906,-0.4908,-0.4918,-0.4935,-0.4936,-0.4937,-0.495,-0.4953,-0.4955,0,0,0,0,0,0,-0.4885,-0.4887,-0.4884,-0.4895,-0.4899,-0.4901,-0.4907,-0.4904,-0.4909,-0.4908,-0.4904,-0.4905,-0.4917,-0.4918,-0.491,-0.4933,-0.4923,-0.4925,-0.4932,-0.4935,-0.4937,-0.4937,-0.49,0,0,0,0,0,-0.4888,-0.4895,-0.4896,-0.4906,-0.4908,-0.4908,-0.4911,-0.4909,-0.4913,-0.4914,-0.4915,-0.4919,-0.4926,-0.493,-0.4936,-0.4951,-0.4952,-0.4958,-0.496,-0.4962,-0.4964,-0.4975,-0.4978,-0.4943,-0.4943,-0.4943,0,0,-0.4895,-0.4897,-0.4901,-0.4908,-0.4911,-0.4919,-0.4909,-0.4917,-0.4923,-0.4915,-0.4926,-0.4928,-0.4931,-0.4945,-0.4951,-0.4946,-0.4975,-0.4964,-0.4966,-0.4967,-0.4977,-0.498,-0.4983,-0.4944,-0.4943,-0.4943,0,0,-0.4912,-0.4913,-0.4923,-0.4926,-0.493,-0.493,-0.4933,-0.4936,-0.4937,-0.4948,-0.4943,-0.495,-0.4961,-0.4965,-0.4969,-0.499,-0.4986,-0.4992,-0.5005,-0.5015,-0.5018,-0.502,-0.503,-0.5034,-0.4994,-0.4994,-0.4994,0,-0.492,-0.4931,-0.4928,-0.4938,-0.4942,-0.4936,-0.4947,-0.495,-0.4956,-0.4959,-0.4954,-0.497,-0.4972,-0.4988,-0.4993,-0.4995,-0.4999,-0.4992,-0.5018,-0.502,-0.5022,-0.5032,-0.5035,-0.4994,-0.4994,-0.4994,-0.4994,0,-0.4942,-0.495,-0.4957,-0.4965,-0.497,-0.4979,-0.4979,-0.4985,-0.4983,-0.4984,-0.4997,-0.4999,-0.5007,-0.501,-0.5008,-0.5027,-0.5024,-0.5018,-0.5009,-0.5027,-0.5036,-0.5039,-0.4996,-0.4995,-0.4995,-0.4995,0,0,-0.4963,-0.4971,-0.4974,-0.4978,-0.4983,-0.499,-0.5001,-0.5009,-0.5015,-0.5019,-0.5029,-0.504,-0.5036,-0.504,-0.5038,-0.5046,-0.5067,-0.504,-0.504,-0.5047,-0.509,-0.5096,-0.5101,-0.5064,-0.5064,-0.5065,-0.5091,0,-0.4982,-0.5,-0.4999,-0.5017,-0.5026,-0.5022,-0.5031,-0.5036,-0.5038,-0.5046,-0.5048,-0.5057,-0.5049,-0.5052,-0.506,-0.5062,-0.5076,-0.506,-0.5074,-0.5075,-0.5076,-0.5105,-0.511,-0.5135,-0.5094,-0.5095,-0.5095,0,-0.5005,-0.5013,-0.5032,-0.5039,-0.5042,-0.5051,-0.506,-0.5067,-0.5074,-0.5075,-0.508,-0.5078,-0.509,-0.508,-0.5098,-0.5087,-0.5093,-0.5095,-0.5096,-0.5099,-0.5087,-0.511,-0.5142,-0.5147,-0.51,-0.51,-0.5099,0,-0.5022,-0.5036,-0.505,-0.5054,-0.5061,-0.5068,-0.5072,-0.5078,-0.5084,-0.5092,-0.5096,-0.5105,-0.511,-0.5118,-0.5118,-0.511,-0.5137,-0.5126,-0.514,-0.514,-0.5147,-0.5147,-0.5183,-0.5147,-0.5147,-0.5147,-0.5147,0,-0.5043,-0.5055,-0.5058,-0.5067,-0.5081,-0.5081,-0.5095,-0.5098,-0.5104,-0.5115,-0.5111,-0.5121,-0.512,-0.513,-0.5131,-0.5147,-0.5149,-0.5151,-0.5151,-0.5152,-0.5153,-0.5157,-0.5157,-0.5148,-0.5148,-0.5148,-0.5147,0,-0.5064,-0.5066,-0.5081,-0.5088,-0.5091,-0.5101,-0.5108,-0.5117,-0.5119,-0.5132,-0.5135,-0.5139,-0.5151,-0.5152,-0.5165,-0.5166,-0.5187,-0.5184,-0.5185,-0.5185,-0.52,-0.52,-0.5242,-0.5249,-0.5207,-0.5207,-0.5207,0,-0.5078,-0.5088,-0.5097,-0.5104,-0.5108,-0.5119,-0.5126,-0.5127,-0.5134,-0.5144,-0.5152,-0.5165,-0.5174,-0.5194,-0.5198,-0.521,-0.5209,-0.5223,-0.521,-0.5212,-0.5212,-0.5212,-0.5215,-0.5226,-0.5226,-0.5226,-0.5227,0,-0.5104,-0.5105,-0.5115,-0.5127,-0.5136,-0.5144,-0.5152,-0.5158,-0.516,-0.5169,-0.5182,-0.519,-0.5206,-0.5219,-0.523,-0.5235,-0.5232,-0.5231,-0.5235,-0.5237,-0.5238,-0.5241,-0.5194,-0.523,-0.523,-0.5229,-0.5229,-0.5229,-0.5123,-0.5133,-0.5142,-0.5154,-0.5161,-0.517,-0.518,-0.5184,-0.5195,-0.5208,-0.5208,-0.5223,-0.5232,-0.5248,-0.5253,-0.5266,-0.5261,-0.5267,-0.5268,-0.527,-0.5273,-0.5235,-0.5268,-0.5268,-0.5267,-0.5267,-0.5267,0,-0.5151,-0.5157,-0.5168,-0.5181,-0.5192,-0.5189,-0.5198,-0.5208,-0.5221,-0.523,-0.5241,-0.5257,-0.5271,-0.5277,-0.529,-0.5299,-0.5299,-0.5303,-0.5303,-0.5305,-0.5275,-0.5271,-0.5304,-0.5304,-0.5304,-0.5304,-0.5304,-0.5304,-0.5166,-0.5184,-0.5187,-0.5209,-0.5215,-0.523,-0.5237,-0.5246,-0.5253,-0.5272,-0.5284,-0.5288,-0.5296,-0.5311,-0.5324,-0.5325,-0.5332,-0.5337,-0.5338,-0.531,-0.5307,-0.5303,-0.53,-0.5338,-0.5338,-0.5368,-0.5368,-0.5368]}]]